{"data":{"norad_id":53913,"intl_designator":"2022-119AD","name":"STARLINK-5053","alt_names":[],"object_type":"PAYLOAD","status":"ACTIVE","operator":null,"country":"US","launch_date":"2022-09-24","launch_site_code":"AFETR","launch_vehicle":null,"mission":null,"orbit_class":"UNKNOWN","rcs_meters":null,"size_class":null,"mass_kg":null,"dimensions":null,"purposes":["comms"],"wikipedia_slug":null,"has_3d_model":false,"image_url":null,"decayed_at":null,"tle_current":{"epoch":"2026-05-24T18:57:38.007072Z","epoch_age_seconds":96756,"freshness":"FRESH","line1":"1 53913U 22119AD  26144.79002323 -.00000550  00000+0 -16484-4 0  9997","line2":"2 53913  53.2160 332.4748 0001334  87.5880 272.5265 15.08841406203313","mean_motion":15.08841406,"eccentricity":0.0001334,"inclination_deg":53.216,"raan_deg":332.4748,"arg_perigee_deg":87.588,"mean_anomaly_deg":272.5265,"bstar":-1.6484e-5,"rev_number":20331,"period_min":95.437465745157,"perigee_km":538.81624671733,"apogee_km":540.66193605851,"semimajor_km":6917.8760913879,"source":"CELESTRAK","updated_at":"2026-05-25T13:38:17.611093Z"}}}